Simultaneous Nadir Overpasses (SNOs) Predictions

Prediction of SNOs between GOES-17 and TERRA Satellite Orbit:

Table of predicted SNOs for the next 14.0 days since TLE Epoch: 11/19/2022
Index Date Time (GOES-17) GOES-17 Lat,Lon TERRA Lat,Lon Distance(km) Time Diff (sec)
1 11/20/2022 07:06:17 0.03,-137.33 0.81,-133.70 412.99 80
2 11/20/2022 19:26:37 -0.03,-137.33 0.26,-138.64 148.40 80
3 11/22/2022 19:13:36 -0.03,-137.32 -0.56,-134.85 281.22 80
4 11/23/2022 07:34:06 0.02,-137.31 -0.50,-139.82 286.06 80
5 11/25/2022 07:15:44 0.02,-137.28 0.27,-136.02 142.32 80
6 11/25/2022 19:36:06 -0.01,-137.28 0.74,-140.97 419.89 80
7 11/27/2022 19:23:04 -0.01,-137.24 -0.03,-137.17 7.59 80
8 11/29/2022 19:07:22 0.00,-137.20 -0.82,-133.38 434.57 80
9 11/30/2022 07:27:51 -0.00,-137.18 -0.27,-138.35 133.07 80
10 12/02/2022 07:09:29 -0.00,-137.14 0.53,-134.55 293.95 80
11 12/02/2022 19:29:51 0.00,-137.13 0.49,-139.50 268.73 80
